Location: Moscow
(55.7500°N, 37.5830°E)
Time: 05:47:40
(UTC+03:00)

Envisat - Pass Details

Date: 30 October 2021
Orbit: 764 x 766 km, 98.2° (Epoch: 28 November)

Event Time Altitude Azimuth Distance (km) Brightness Sun altitude
Rises 05:11:14 0° 18° (NNE) 3,247 6.6 -20.1°
Reaches altitude 10° 05:13:40 10° 26° (NNE) 2,316 5.9 -19.8°
Maximum altitude 05:18:31 42° 97° (E) 1,084 4.3 -19.1°
Drops below altitude 10° 05:23:19 10° 168° (SSE) 2,298 5.6 -18.4°
Sets 05:25:44 0° 176° (S) 3,220 6.3 -18.1°
